Weather Roundup
Issued by NWS Springfield, MO

Home | Current Version | Previous Version | Text Only | Print | Product List | Glossary On
Versions: 1 2 3 4 5 6 7 8 9 10 11 12 13 14 15 16 17 18 19 20 21 22 23 24 25 26 27 28 29 30 31 32 33 34 35 36 37 38 39 40 41 42 43 44 45 46 47 48 49 50
000
NZUS99 KSGF 232007
HRRSGF

HOURLY WEATHER
NATIONAL WEATHER SERVICE SPRINGFIELD MO
300 PM CDT SAT SEP 23 2017

......SGF CWA......

CITY           SKY/WX    TMP DP  RH WIND       PRES   REMARKS
SPRINGFIELD    MOSUNNY   90  61  37 VRB3      30.00F HX  90
JOPLIN         MOSUNNY   88  64  44 SE6       29.99F
WEST PLAINS    SUNNY     90  60  36 E9        30.04F
ROLLA          SUNNY     91  61  36 CALM      30.03F HX  91
OSAGE BEACH    PTSUNNY   90  66  45 E5        30.01  HX  92
BRANSON        MOSUNNY   90  59  35 E12       30.02F

......SURROUNDING SGF CWA......

CITY           SKY/WX    TMP DP  RH WIND       PRES   REMARKS
CHANUTE        SUNNY     88  66  48 SE13      29.97F HX  90
PARSONS        MOSUNNY   90  66  45 SE7       29.97F HX  92
COFFEYVILLE    SUNNY     89  67  47 S10       29.95F HX  92
EMPORIA        SUNNY     88  64  44 S14G24    29.96F
GROVE OK       SUNNY     91  64  40 SE3       29.99F HX  93
ROGERS AR      SUNNY     88  64  44 SE6       30.02F
SILOAM SPRINGS   N/A     88  65  46 SE8       30.01  HX  90
HARRISON AR    MOSUNNY   91  59  33 VRB6      30.02F HX  90
NEAR YELLVILLE SUNNY     93  63  36 E8        29.99F HX  94

......KANSAS AND MISSOURI......

CITY           SKY/WX    TMP DP  RH WIND       PRES   REMARKS
KANSAS CTY INT MOSUNNY   88  68  51 S12       29.99F HX  91
DOWNTOWN KC    MOSUNNY   91  69  48 S10G18    29.97F HX  96
COLUMBIA       SUNNY     90  64  42 SE7       30.02F HX  91
SEDALIA        SUNNY     92  69  47 S8        30.01F HX  97
ST JOSEPH      MOSUNNY   91  68  46 S9        29.96F HX  95
ST LOUIS       MOSUNNY   91  62  37 SE7       30.03F HX  91
SPIRIT OF STL  MOSUNNY   91  66  43 E7        30.00F HX  93
KIRKSVILLE     MOSUNNY   92  63  38 VRB6      30.01F HX  93
WICHITA        MOSUNNY   89  64  43 SE16G25   29.92F HX  90
TOPEKA         MOSUNNY   90  68  48 SE13G21   29.95F HX  94
OLATHE         MOSUNNY   86  68  54 S10       29.99F

......TENNESSEE......

CITY           SKY/WX    TMP DP  RH WIND       PRES   REMARKS
MEMPHIS        PTSUNNY   90  67  46 N3        29.98F HX  93
NASHVILLE      MOSUNNY   89  67  47 E8        30.02F HX  92

......ARKANSAS.......

CITY           SKY/WX    TMP DP  RH WIND       PRES   REMARKS
FAYETTEVILLE   CLOUDY    85  66  53 NE3       30.00F
FT SMITH       MOSUNNY   91  66  43 NE10      29.94F HX  93
LITTLE ROCK    MOSUNNY   91  68  46 E9        29.96F HX  95

......OKLAHOMA.......

CITY           SKY/WX    TMP DP  RH WIND       PRES   REMARKS
TULSA          MOSUNNY   91  66  43 SE9       29.93F HX  93
PONCA CITY     MOSUNNY   90  64  42 SE18      29.92F HX  91
MCALESTER      MOSUNNY   91  67  44 VRB5      29.95F HX  94
OKLAHOMA CITY  PTSUNNY   89  65  44 S17G23    29.93F HX  91

......IOWA............

CITY           SKY/WX    TMP DP  RH WIND       PRES   REMARKS
DES MOINES     MOSUNNY   92  64  39 S13       29.96F HX  93
QUAD CITIES    SUNNY     93  63  36 S6        30.01F HX  94

......ILLINOIS........

CITY           SKY/WX    TMP DP  RH WIND       PRES   REMARKS
QUINCY         SUNNY     92  61  35 SE13      30.01F HX  92
CHICAGO        MOSUNNY   92  64  39 E10       30.04F HX  93




USA.gov is the U.S. government's official web portal to all federal, state and local government web resources and services.